Location: Unspecified
(0.0000°N, 0.0000°E)
Time: 17:53:07
(UTC+00:00)

Hubble Space Telescope - Pass Details

Date: 10 December 2018
Orbit: 537 x 540 km, 28.5° (Epoch: 11 December)

Event Time Altitude Azimuth Distance (km) Brightness Sun altitude
Rises 19:16:46 0° 221° (SW) 2,676 5.5 -19.2°
Reaches altitude 10° 19:19:19 10° 208° (SSW) 1,785 4.2 -19.8°
Maximum altitude 19:22:47 26° 151° (SSE) 1,086 2.2 -20.6°
Enters shadow 19:23:14 25° 139° (SE) 1,102 2.2 -20.7°
